Location: Bushrod
(6.3500°N, 10.7833°W)
Time: 15:32:49
(UTC+00:00)

Cosmos 2154 Rocket - Pass Details

Date: 17 September 2019
Orbit: 965 x 997 km, 82.9° (Epoch: 16 October)

Event Time Altitude Azimuth Distance (km) Brightness Sun altitude
Rises 20:12:54 0° 4° (N) 3,642 7.0 -23.4°
Reaches altitude 10° 20:15:26 10° 8° (N) 2,698 6.3 -24.0°
Enters shadow 20:21:11 57° 74° (ENE) 1,125 3.9 -25.4°
